UPS284 KONT-KDFW

Flight info

Callsign UPS284
Flight time 2h 17m
Altitude 33000
Route RAJEE4 MTBAL CNERY BLH J169 TFD J50 SSO J4 INK GEEKY SOCKK4
Aircraft MD11/H-SDE1E2E3FGHIJ2J3J4J5M1RWXYZ/LB1D1

Departure

Time 2026-05-07 02:00
Airport Ontario International Airport (KONT)

Arrival

Time 2026-05-07 04:17
Airport Dallas Fort Worth International Airport (KDFW)
Time Latitude Longitude Altitude Speed Heading
2026-05-07 01:36 34.04996 -117.57992 961 ft 0 kts 90°
2026-05-07 01:47 34.04996 -117.57993 961 ft 0 kts 90°
2026-05-07 01:48 34.04996 -117.58004 963 ft 0 kts 90°
2026-05-07 01:48 34.04995 -117.58019 964 ft 2 kts 79°
2026-05-07 01:49 34.04991 -117.58036 965 ft 2 kts 62°
2026-05-07 01:49 34.04982 -117.58051 965 ft 2 kts 46°
2026-05-07 01:49 34.04971 -117.58063 964 ft 2 kts 31°
2026-05-07 01:49 34.04957 -117.58070 962 ft 2 kts 15°
2026-05-07 01:50 34.04944 -117.58073 961 ft 0 kts
2026-05-07 01:50 34.04940 -117.58073 961 ft 0 kts 359°
2026-05-07 01:52 34.04950 -117.58073 961 ft 3 kts 359°
2026-05-07 01:52 34.04986 -117.58073 961 ft 6 kts
2026-05-07 01:52 34.05031 -117.58073 961 ft 6 kts
2026-05-07 01:53 34.05080 -117.58072 961 ft 7 kts 360°
2026-05-07 01:53 34.05132 -117.58071 961 ft 7 kts
2026-05-07 01:53 34.05188 -117.58071 961 ft 8 kts 360°
2026-05-07 01:53 34.05236 -117.58105 961 ft 9 kts 294°
2026-05-07 01:54 34.05247 -117.58185 961 ft 9 kts 277°
2026-05-07 01:54 34.05280 -117.58253 961 ft 9 kts 326°
2026-05-07 01:54 34.05347 -117.58271 962 ft 10 kts 359°
2026-05-07 01:54 34.05380 -117.58272 962 ft 0 kts 359°
2026-05-07 01:57 34.05381 -117.58272 962 ft 0 kts 359°
2026-05-07 01:58 34.05393 -117.58272 962 ft 3 kts 359°
2026-05-07 01:58 34.05438 -117.58272 962 ft 8 kts 359°
2026-05-07 01:58 34.05489 -117.58300 962 ft 8 kts 301°
2026-05-07 01:58 34.05498 -117.58374 962 ft 10 kts 269°
2026-05-07 01:59 34.05498 -117.58542 962 ft 43 kts 270°
2026-05-07 01:59 34.05497 -117.59208 962 ft 113 kts 270°
2026-05-07 01:59 34.05497 -117.60407 963 ft 171 kts 269°
2026-05-07 01:59 34.05489 -117.61920 1341 ft 181 kts 267°
2026-05-07 02:00 34.05158 -117.63340 1891 ft 181 kts 234°
2026-05-07 02:00 34.04182 -117.64365 2326 ft 197 kts 205°
2026-05-07 02:00 34.02818 -117.64691 2843 ft 206 kts 176°
2026-05-07 02:00 34.01436 -117.64223 3333 ft 214 kts 149°
2026-05-07 02:01 34.00269 -117.63110 3885 ft 217 kts 127°
2026-05-07 02:01 33.99249 -117.61729 4331 ft 232 kts 131°
2026-05-07 02:01 33.98105 -117.60254 4764 ft 249 kts 134°
2026-05-07 02:01 33.96784 -117.58732 5158 ft 271 kts 134°
2026-05-07 02:02 33.95430 -117.57144 5912 ft 279 kts 133°
2026-05-07 02:02 33.94022 -117.55504 6710 ft 284 kts 134°
2026-05-07 02:02 33.92547 -117.53877 7455 ft 293 kts 135°
2026-05-07 02:02 33.91002 -117.52255 8314 ft 297 kts 138°
2026-05-07 02:03 33.89338 -117.50803 9151 ft 302 kts 142°
2026-05-07 02:03 33.87597 -117.49395 10019 ft 304 kts 142°
2026-05-07 02:03 33.85823 -117.47959 10824 ft 307 kts 141°
2026-05-07 02:03 33.84082 -117.46514 11571 ft 311 kts 140°
2026-05-07 02:04 33.82223 -117.44950 11818 ft 337 kts 140°
2026-05-07 02:04 33.80244 -117.43275 11879 ft 366 kts 140°
2026-05-07 02:04 33.78061 -117.41442 11955 ft 393 kts 141°
2026-05-07 02:04 33.75779 -117.39524 12481 ft 405 kts 139°
2026-05-07 02:05 33.73654 -117.37276 13124 ft 407 kts 127°
2026-05-07 02:05 33.71998 -117.34595 13911 ft 404 kts 116°
2026-05-07 02:05 33.70813 -117.31514 14636 ft 404 kts 104°
2026-05-07 02:05 33.70166 -117.28252 15369 ft 403 kts 94°
2026-05-07 02:06 33.69887 -117.24908 16070 ft 406 kts 91°
2026-05-07 02:06 33.69638 -117.21558 16776 ft 411 kts 92°
2026-05-07 02:06 33.69347 -117.18138 17457 ft 416 kts 92°
2026-05-07 02:06 33.69029 -117.14652 18150 ft 420 kts 93°
2026-05-07 02:07 33.68701 -117.11179 18812 ft 424 kts 93°
2026-05-07 02:07 33.68021 -117.04119 20072 ft 432 kts 92°
2026-05-07 02:07 33.67672 -117.00504 20689 ft 436 kts 92°
2026-05-07 02:08 33.67323 -116.96887 21322 ft 439 kts 92°
2026-05-07 02:08 33.66974 -116.93249 21886 ft 444 kts 92°
2026-05-07 02:08 33.66625 -116.89585 22494 ft 447 kts 92°
2026-05-07 02:08 33.66267 -116.85852 23075 ft 451 kts 92°
2026-05-07 02:09 33.65913 -116.82141 23686 ft 453 kts 92°
2026-05-07 02:09 33.65552 -116.78346 24264 ft 456 kts 92°
2026-05-07 02:09 33.65191 -116.74609 24821 ft 459 kts 92°
2026-05-07 02:09 33.64797 -116.70807 25375 ft 462 kts 92°
2026-05-07 02:10 33.64403 -116.66960 25933 ft 464 kts 92°
2026-05-07 02:10 33.64014 -116.63100 26513 ft 465 kts 92°
2026-05-07 02:10 33.63630 -116.59277 27081 ft 467 kts 92°
2026-05-07 02:10 33.63244 -116.55407 27588 ft 469 kts 92°
2026-05-07 02:11 33.62858 -116.51530 28275 ft 467 kts 92°
2026-05-07 02:11 33.62476 -116.47711 28995 ft 464 kts 92°
2026-05-07 02:11 33.62098 -116.43875 29743 ft 460 kts 91°
2026-05-07 02:11 33.61729 -116.40138 30389 ft 457 kts 91°
2026-05-07 02:12 33.61359 -116.36362 30939 ft 456 kts 91°
2026-05-07 02:12 33.61031 -116.32601 31567 ft 450 kts 89°
2026-05-07 02:12 33.60903 -116.28908 32056 ft 447 kts 86°
2026-05-07 02:12 33.60827 -116.25176 32486 ft 447 kts 87°
2026-05-07 02:13 33.60746 -116.21451 32905 ft 447 kts 86°
2026-05-07 02:13 33.60661 -116.17725 32962 ft 448 kts 86°
2026-05-07 02:13 33.60479 -116.10307 32987 ft 444 kts 86°
2026-05-07 02:14 33.60421 -116.02953 32992 ft 441 kts 84°
2026-05-07 02:14 33.60603 -115.95589 32988 ft 440 kts 83°
2026-05-07 02:15 33.60825 -115.88281 33017 ft 440 kts 83°
2026-05-07 02:15 33.61047 -115.80994 33030 ft 440 kts 83°
2026-05-07 02:16 33.61269 -115.73634 33037 ft 440 kts 83°
2026-05-07 02:16 33.61504 -115.66312 33047 ft 439 kts 83°
2026-05-07 02:17 33.61678 -115.59013 33038 ft 439 kts 84°
2026-05-07 02:17 33.61608 -115.51715 33026 ft 441 kts 86°
2026-05-07 02:18 33.61399 -115.44328 33017 ft 441 kts 86°
2026-05-07 02:18 33.61187 -115.37009 33006 ft 441 kts 86°
2026-05-07 02:19 33.60977 -115.29671 33002 ft 439 kts 86°
2026-05-07 02:19 33.60778 -115.22376 32991 ft 440 kts 87°
2026-05-07 02:20 33.60581 -115.15035 32984 ft 439 kts 87°
2026-05-07 02:20 33.60388 -115.07735 32964 ft 439 kts 87°
2026-05-07 02:21 33.60199 -115.00460 32963 ft 439 kts 87°
2026-05-07 02:21 33.60011 -114.93162 32954 ft 439 kts 86°
2026-05-07 02:22 33.59833 -114.85827 32951 ft 439 kts 86°
2026-05-07 02:22 33.59611 -114.78530 32942 ft 440 kts 88°
2026-05-07 02:23 33.59151 -114.71201 32942 ft 441 kts 90°
2026-05-07 02:23 33.58490 -114.63924 32938 ft 442 kts 91°
2026-05-07 02:24 33.57808 -114.56612 32942 ft 443 kts 91°
2026-05-07 02:24 33.57117 -114.49255 32942 ft 442 kts 91°
2026-05-07 02:25 33.56438 -114.41966 32953 ft 441 kts 91°
2026-05-07 02:25 33.55761 -114.34639 32959 ft 442 kts 91°
2026-05-07 02:26 33.55087 -114.27319 32973 ft 443 kts 92°
2026-05-07 02:26 33.54415 -114.20012 32973 ft 443 kts 91°
2026-05-07 02:27 33.53754 -114.12719 32986 ft 443 kts 91°
2026-05-07 02:27 33.53091 -114.05357 32998 ft 444 kts 91°
2026-05-07 02:28 33.52432 -113.98032 33005 ft 442 kts 91°
2026-05-07 02:28 33.51781 -113.90745 33002 ft 443 kts 91°
2026-05-07 02:29 33.51084 -113.83359 33004 ft 445 kts 92°
2026-05-07 02:29 33.50339 -113.75999 32989 ft 445 kts 92°
2026-05-07 02:30 33.49613 -113.68663 32988 ft 446 kts 92°
2026-05-07 02:30 33.48898 -113.61303 32978 ft 447 kts 92°
2026-05-07 02:31 33.48174 -113.53872 32986 ft 448 kts 92°
2026-05-07 02:31 33.47462 -113.46492 32991 ft 448 kts 92°
2026-05-07 02:32 33.46638 -113.39092 32983 ft 453 kts 96°
2026-05-07 02:32 33.44968 -113.31761 32970 ft 461 kts 107°
2026-05-07 02:33 33.42297 -113.24699 32967 ft 465 kts 111°
2026-05-07 02:33 33.39507 -113.17731 32970 ft 465 kts 111°
2026-05-07 02:34 33.36716 -113.10780 32965 ft 465 kts 111°
2026-05-07 02:34 33.33899 -113.03772 32961 ft 466 kts 111°
2026-05-07 02:35 33.31102 -112.96791 32952 ft 468 kts 111°
2026-05-07 02:35 33.28307 -112.89814 32945 ft 468 kts 112°
2026-05-07 02:36 33.25481 -112.82763 32949 ft 469 kts 112°
2026-05-07 02:36 33.22689 -112.75776 32950 ft 468 kts 112°
2026-05-07 02:37 33.19899 -112.68784 32952 ft 470 kts 111°
2026-05-07 02:37 33.17090 -112.61725 32946 ft 471 kts 112°
2026-05-07 02:38 33.14278 -112.54662 32944 ft 470 kts 112°
2026-05-07 02:38 33.11501 -112.47671 32957 ft 469 kts 112°
2026-05-07 02:39 33.08746 -112.40575 32961 ft 473 kts 116°
2026-05-07 02:39 33.05866 -112.33476 32980 ft 484 kts 118°
2026-05-07 02:40 33.02866 -112.26236 32978 ft 487 kts 117°
2026-05-07 02:40 32.99911 -112.18996 32974 ft 485 kts 117°
2026-05-07 02:41 32.96977 -112.11791 32963 ft 484 kts 117°
2026-05-07 02:41 32.94041 -112.04569 32964 ft 484 kts 117°
2026-05-07 02:42 32.91119 -111.97347 32964 ft 485 kts 116°
2026-05-07 02:42 32.88568 -111.89932 32969 ft 487 kts 111°
2026-05-07 02:43 32.86642 -111.82182 32974 ft 490 kts 106°
2026-05-07 02:43 32.84906 -111.74362 32973 ft 490 kts 107°
2026-05-07 02:44 32.83175 -111.66543 32989 ft 490 kts 107°
2026-05-07 02:44 32.81401 -111.58697 32984 ft 491 kts 108°
2026-05-07 02:45 32.79576 -111.50874 32998 ft 495 kts 108°
2026-05-07 02:45 32.77754 -111.42976 32999 ft 498 kts 108°
2026-05-07 02:46 32.75922 -111.34972 33012 ft 502 kts 109°
2026-05-07 02:46 32.74097 -111.27001 33016 ft 503 kts 109°
2026-05-07 02:47 32.72258 -111.18938 33040 ft 504 kts 109°
2026-05-07 02:47 32.70425 -111.10888 33054 ft 505 kts 109°
2026-05-07 02:48 32.68602 -111.02863 33082 ft 506 kts 109°
2026-05-07 02:48 32.66767 -110.94741 33099 ft 508 kts 109°
2026-05-07 02:49 32.64944 -110.86672 33105 ft 509 kts 110°
2026-05-07 02:49 32.63110 -110.78522 33122 ft 511 kts 110°
2026-05-07 02:50 32.61297 -110.70434 33138 ft 512 kts 110°
2026-05-07 02:50 32.59425 -110.62270 33115 ft 512 kts 111°
2026-05-07 02:51 32.57500 -110.54168 33103 ft 511 kts 111°
2026-05-07 02:51 32.55523 -110.46045 33079 ft 512 kts 112°
2026-05-07 02:52 32.53559 -110.37902 33096 ft 515 kts 112°
2026-05-07 02:52 32.51611 -110.29765 33128 ft 514 kts 112°
2026-05-07 02:53 32.49656 -110.21582 33157 ft 514 kts 113°
2026-05-07 02:53 32.47717 -110.13478 33148 ft 516 kts 113°
2026-05-07 02:54 32.45757 -110.05235 33127 ft 518 kts 113°
2026-05-07 02:54 32.43819 -109.97066 33131 ft 519 kts 113°
2026-05-07 02:55 32.41871 -109.88851 33143 ft 521 kts 113°
2026-05-07 02:55 32.40886 -109.84678 33354 ft 522 kts 113°
2026-05-07 02:55 32.39919 -109.80567 33809 ft 521 kts 113°
2026-05-07 02:56 32.38942 -109.76424 34228 ft 520 kts 113°
2026-05-07 02:56 32.37979 -109.72341 34513 ft 522 kts 113°
2026-05-07 02:56 32.37001 -109.68185 34861 ft 521 kts 113°
2026-05-07 02:56 32.36038 -109.64081 35143 ft 522 kts 113°
2026-05-07 02:57 32.34021 -109.55785 35138 ft 522 kts 114°
2026-05-07 02:57 32.32010 -109.47600 35135 ft 521 kts 114°
2026-05-07 02:58 32.30005 -109.39366 35131 ft 523 kts 114°
2026-05-07 02:58 32.28040 -109.31084 35129 ft 526 kts 112°
2026-05-07 02:59 32.26588 -109.22557 35131 ft 532 kts 105°
2026-05-07 02:59 32.25680 -109.13882 35126 ft 536 kts 104°
2026-05-07 03:00 32.24813 -109.05147 35148 ft 535 kts 104°
2026-05-07 03:00 32.23931 -108.96446 35169 ft 536 kts 104°
2026-05-07 03:01 32.23047 -108.87667 35156 ft 538 kts 104°
2026-05-07 03:01 32.22169 -108.78947 35156 ft 538 kts 103°
2026-05-07 03:02 32.21294 -108.70169 35147 ft 540 kts 103°
2026-05-07 03:02 32.20424 -108.61388 35147 ft 541 kts 103°
2026-05-07 03:03 32.19557 -108.52567 35176 ft 542 kts 103°
2026-05-07 03:03 32.18692 -108.43729 35172 ft 543 kts 103°
2026-05-07 03:04 32.17836 -108.34898 35168 ft 542 kts 104°
2026-05-07 03:04 32.16981 -108.26040 35196 ft 542 kts 104°
2026-05-07 03:05 32.16122 -108.17182 35192 ft 542 kts 104°
2026-05-07 03:05 32.15124 -108.08355 35188 ft 542 kts 105°
2026-05-07 03:06 32.14143 -107.99558 35180 ft 544 kts 105°
2026-05-07 03:06 32.13181 -107.90717 35169 ft 544 kts 105°
2026-05-07 03:07 32.12222 -107.81854 35151 ft 544 kts 104°
2026-05-07 03:07 32.11274 -107.73051 35148 ft 545 kts 104°
2026-05-07 03:08 32.10326 -107.64196 35146 ft 545 kts 104°
2026-05-07 03:08 32.09388 -107.55357 35136 ft 544 kts 104°
2026-05-07 03:09 32.08450 -107.46484 35136 ft 546 kts 104°
2026-05-07 03:09 32.07514 -107.37568 35125 ft 546 kts 104°
2026-05-07 03:10 32.06587 -107.28658 35124 ft 546 kts 105°
2026-05-07 03:10 32.05655 -107.19816 35126 ft 546 kts 105°
2026-05-07 03:11 32.04599 -107.11002 35129 ft 547 kts 106°
2026-05-07 03:11 32.03547 -107.02112 35129 ft 549 kts 105°
2026-05-07 03:12 32.02518 -106.93216 35114 ft 548 kts 105°
2026-05-07 03:12 32.01487 -106.84300 35117 ft 548 kts 105°
2026-05-07 03:13 32.00468 -106.75411 35113 ft 549 kts 105°
2026-05-07 03:13 31.99447 -106.66454 35095 ft 549 kts 105°
2026-05-07 03:14 31.98433 -106.57547 35102 ft 551 kts 105°
2026-05-07 03:15 31.96923 -106.44096 35104 ft 552 kts 105°
2026-05-07 03:15 31.95932 -106.35188 35095 ft 552 kts 105°
2026-05-07 03:16 31.95220 -106.26109 35095 ft 557 kts 101°
2026-05-07 03:16 31.94972 -106.17027 35116 ft 560 kts 98°
2026-05-07 03:17 31.94803 -106.07861 35146 ft 560 kts 98°
2026-05-07 03:17 31.94615 -105.98719 35161 ft 559 kts 98°
2026-05-07 03:18 31.94429 -105.89557 35170 ft 559 kts 98°
2026-05-07 03:18 31.94249 -105.80440 35177 ft 561 kts 98°
2026-05-07 03:19 31.94076 -105.71267 35173 ft 561 kts 98°
2026-05-07 03:19 31.93910 -105.62080 35174 ft 562 kts 98°
2026-05-07 03:20 31.93749 -105.52851 35184 ft 563 kts 98°
2026-05-07 03:20 31.93590 -105.43690 35164 ft 563 kts 98°
2026-05-07 03:21 31.93446 -105.34435 35147 ft 564 kts 98°
2026-05-07 03:21 31.93228 -105.25253 35138 ft 562 kts 100°
2026-05-07 03:22 31.92943 -105.16043 35119 ft 563 kts 99°
2026-05-07 03:22 31.92694 -105.06860 35109 ft 565 kts 99°
2026-05-07 03:23 31.92455 -104.97631 35102 ft 564 kts 99°
2026-05-07 03:23 31.92219 -104.88474 35132 ft 564 kts 99°
2026-05-07 03:24 31.91990 -104.79217 35157 ft 566 kts 99°
2026-05-07 03:24 31.91766 -104.69986 35175 ft 567 kts 98°
2026-05-07 03:25 31.91550 -104.60718 35151 ft 568 kts 98°
2026-05-07 03:25 31.91340 -104.51450 35123 ft 568 kts 98°
2026-05-07 03:26 31.91136 -104.42185 35104 ft 569 kts 98°
2026-05-07 03:26 31.90934 -104.32878 35080 ft 570 kts 99°
2026-05-07 03:27 31.90590 -104.23560 35059 ft 571 kts 99°
2026-05-07 03:27 31.90242 -104.14223 35056 ft 573 kts 99°
2026-05-07 03:28 31.89924 -104.04895 35054 ft 574 kts 99°
2026-05-07 03:28 31.89611 -103.95528 35051 ft 575 kts 99°
2026-05-07 03:29 31.89299 -103.86162 35052 ft 574 kts 99°
2026-05-07 03:29 31.88997 -103.76764 35054 ft 575 kts 98°
2026-05-07 03:30 31.88705 -103.67406 35047 ft 575 kts 98°
2026-05-07 03:30 31.88417 -103.57982 35060 ft 576 kts 99°
2026-05-07 03:31 31.88134 -103.48626 35053 ft 576 kts 98°
2026-05-07 03:31 31.87860 -103.39236 35050 ft 575 kts 98°
2026-05-07 03:32 31.87583 -103.29806 35041 ft 577 kts 97°
2026-05-07 03:32 31.88018 -103.20305 35031 ft 586 kts 88°
2026-05-07 03:33 31.89192 -103.10866 35040 ft 588 kts 85°
2026-05-07 03:33 31.90436 -103.01339 35031 ft 588 kts 86°
2026-05-07 03:34 31.91636 -102.91876 35024 ft 588 kts 85°
2026-05-07 03:34 31.92849 -102.82366 35041 ft 589 kts 86°
2026-05-07 03:35 31.94066 -102.72852 35041 ft 589 kts 85°
2026-05-07 03:35 31.95288 -102.63321 35048 ft 590 kts 85°
2026-05-07 03:36 31.96533 -102.53793 35047 ft 590 kts 86°
2026-05-07 03:36 31.97762 -102.44295 35040 ft 591 kts 86°
2026-05-07 03:37 31.99020 -102.34703 35060 ft 590 kts 86°
2026-05-07 03:37 32.00278 -102.25171 35044 ft 590 kts 86°
2026-05-07 03:38 32.01523 -102.15668 35046 ft 590 kts 87°
2026-05-07 03:38 32.02628 -102.06070 35038 ft 589 kts 88°
2026-05-07 03:39 32.03731 -101.96590 35043 ft 589 kts 86°
2026-05-07 03:39 32.04879 -101.86984 35052 ft 588 kts 86°
2026-05-07 03:40 32.06022 -101.77474 35045 ft 588 kts 86°
2026-05-07 03:40 32.07175 -101.67949 35041 ft 586 kts 86°
2026-05-07 03:41 32.08325 -101.58425 35045 ft 586 kts 86°
2026-05-07 03:41 32.09492 -101.48938 35046 ft 586 kts 86°
2026-05-07 03:42 32.10659 -101.39420 35054 ft 584 kts 86°
2026-05-07 03:42 32.11823 -101.29990 35051 ft 584 kts 86°
2026-05-07 03:43 32.13003 -101.20480 35048 ft 584 kts 86°
2026-05-07 03:43 32.14044 -101.11052 35052 ft 582 kts 88°
2026-05-07 03:44 32.15065 -101.01586 35047 ft 581 kts 87°
2026-05-07 03:44 32.16116 -100.92100 35026 ft 580 kts 87°
2026-05-07 03:45 32.17167 -100.82696 35026 ft 581 kts 87°
2026-05-07 03:45 32.18228 -100.73312 35033 ft 581 kts 87°
2026-05-07 03:46 32.19295 -100.63844 35033 ft 582 kts 86°
2026-05-07 03:46 32.20380 -100.54358 35033 ft 582 kts 86°
2026-05-07 03:47 32.21466 -100.44919 35046 ft 581 kts 86°
2026-05-07 03:47 32.22554 -100.35449 35045 ft 581 kts 86°
2026-05-07 03:48 32.23647 -100.26054 35045 ft 580 kts 87°
2026-05-07 03:48 32.24698 -100.16622 35038 ft 579 kts 88°
2026-05-07 03:49 32.25691 -100.07196 35036 ft 579 kts 88°
2026-05-07 03:49 32.26711 -99.97746 35044 ft 580 kts 88°
2026-05-07 03:50 32.27756 -99.88312 35055 ft 579 kts 88°
2026-05-07 03:50 32.28461 -99.78887 35056 ft 577 kts 92°
2026-05-07 03:51 32.28911 -99.69459 35055 ft 577 kts 92°
2026-05-07 03:51 32.29362 -99.59937 35061 ft 577 kts 92°
2026-05-07 03:52 32.29825 -99.50491 35053 ft 578 kts 91°
2026-05-07 03:52 32.30302 -99.41057 35023 ft 579 kts 92°
2026-05-07 03:52 32.30542 -99.36285 34348 ft 580 kts 92°
2026-05-07 03:53 32.30780 -99.31555 33363 ft 582 kts 92°
2026-05-07 03:53 32.31021 -99.26794 32591 ft 581 kts 92°
2026-05-07 03:53 32.31268 -99.22003 31817 ft 581 kts 92°
2026-05-07 03:53 32.31513 -99.17246 31015 ft 582 kts 91°
2026-05-07 03:54 32.31762 -99.12465 30211 ft 584 kts 91°
2026-05-07 03:54 32.32019 -99.07666 29426 ft 585 kts 92°
2026-05-07 03:54 32.32270 -99.02905 28592 ft 587 kts 91°
2026-05-07 03:54 32.32522 -98.98105 27715 ft 587 kts 91°
2026-05-07 03:55 32.32767 -98.93259 26900 ft 587 kts 91°
2026-05-07 03:55 32.32972 -98.88512 26108 ft 587 kts 91°
2026-05-07 03:55 32.33184 -98.83652 25308 ft 586 kts 90°
2026-05-07 03:55 32.33396 -98.78906 24506 ft 583 kts 90°
2026-05-07 03:56 32.33618 -98.74161 23684 ft 575 kts 89°
2026-05-07 03:56 32.33838 -98.69488 22998 ft 568 kts 89°
2026-05-07 03:56 32.34058 -98.64834 22271 ft 563 kts 89°
2026-05-07 03:56 32.34277 -98.60238 21653 ft 555 kts 88°
2026-05-07 03:57 32.34477 -98.55767 21171 ft 549 kts 89°
2026-05-07 03:57 32.34645 -98.51280 20554 ft 544 kts 89°
2026-05-07 03:57 32.34813 -98.46827 19959 ft 538 kts 89°
2026-05-07 03:57 32.34980 -98.42481 19366 ft 528 kts 88°
2026-05-07 03:58 32.35152 -98.38178 18835 ft 520 kts 88°
2026-05-07 03:58 32.35329 -98.33910 18300 ft 515 kts 88°
2026-05-07 03:58 32.35501 -98.29745 17758 ft 509 kts 88°
2026-05-07 03:58 32.35677 -98.25574 17194 ft 504 kts 88°
2026-05-07 03:59 32.35848 -98.21480 16685 ft 498 kts 88°
2026-05-07 03:59 32.36020 -98.17415 16165 ft 493 kts 88°
2026-05-07 03:59 32.36190 -98.13377 15665 ft 488 kts 88°
2026-05-07 03:59 32.36360 -98.09395 15176 ft 483 kts 88°
2026-05-07 04:00 32.36527 -98.05502 14703 ft 478 kts 87°
2026-05-07 04:00 32.36698 -98.01566 14216 ft 474 kts 87°
2026-05-07 04:00 32.36867 -97.97696 13748 ft 470 kts 87°
2026-05-07 04:00 32.37035 -97.93851 13277 ft 465 kts 87°
2026-05-07 04:01 32.37203 -97.90060 12935 ft 460 kts 87°
2026-05-07 04:01 32.37353 -97.86297 12229 ft 459 kts 87°
2026-05-07 04:01 32.37495 -97.82535 11607 ft 451 kts 87°
2026-05-07 04:01 32.37629 -97.78943 11331 ft 431 kts 87°
2026-05-07 04:02 32.37759 -97.75469 11160 ft 410 kts 87°
2026-05-07 04:02 32.37883 -97.72183 11132 ft 390 kts 87°
2026-05-07 04:02 32.38004 -97.69070 11113 ft 371 kts 87°
2026-05-07 04:02 32.38119 -97.66113 11095 ft 356 kts 86°
2026-05-07 04:03 32.38514 -97.63280 11083 ft 342 kts 68°
2026-05-07 04:03 32.39558 -97.60790 10767 ft 335 kts 48°
2026-05-07 04:03 32.41112 -97.58817 10308 ft 326 kts 36°
2026-05-07 04:03 32.42821 -97.57057 9954 ft 319 kts 35°
2026-05-07 04:04 32.44454 -97.55338 9600 ft 316 kts 37°
2026-05-07 04:04 32.46052 -97.53565 9196 ft 313 kts 41°
2026-05-07 04:04 32.47374 -97.51508 8856 ft 312 kts 59°
2026-05-07 04:04 32.48137 -97.49101 8509 ft 314 kts 77°
2026-05-07 04:05 32.48390 -97.46536 8076 ft 313 kts 85°
2026-05-07 04:05 32.48527 -97.43994 7640 ft 310 kts 84°
2026-05-07 04:05 32.48701 -97.41454 7197 ft 306 kts 83°
2026-05-07 04:05 32.48904 -97.38995 6793 ft 299 kts 82°
2026-05-07 04:06 32.49123 -97.36575 6438 ft 291 kts 82°
2026-05-07 04:06 32.49342 -97.34222 6190 ft 278 kts 82°
2026-05-07 04:06 32.49551 -97.32013 6071 ft 264 kts 82°
2026-05-07 04:06 32.49754 -97.29872 5901 ft 256 kts 81°
2026-05-07 04:07 32.49954 -97.27832 5680 ft 245 kts 78°
2026-05-07 04:07 32.50342 -97.25936 5549 ft 229 kts 66°
2026-05-07 04:07 32.51018 -97.24239 5446 ft 224 kts 56°
2026-05-07 04:07 32.51829 -97.22690 5311 ft 223 kts 55°
2026-05-07 04:08 32.52617 -97.21092 5173 ft 222 kts 57°
2026-05-07 04:08 32.53343 -97.19497 5041 ft 220 kts 59°
2026-05-07 04:08 32.54055 -97.17877 4904 ft 218 kts 59°
2026-05-07 04:08 32.54740 -97.16290 4766 ft 216 kts 59°
2026-05-07 04:09 32.55430 -97.14691 4631 ft 215 kts 59°
2026-05-07 04:09 32.56105 -97.13124 4501 ft 214 kts 59°
2026-05-07 04:09 32.56783 -97.11551 4369 ft 212 kts 60°
2026-05-07 04:09 32.57448 -97.10009 4240 ft 211 kts 60°
2026-05-07 04:10 32.58122 -97.08445 4108 ft 207 kts 59°
2026-05-07 04:10 32.58770 -97.06967 4027 ft 200 kts 54°
2026-05-07 04:10 32.59797 -97.05946 3988 ft 192 kts 17°
2026-05-07 04:10 32.61140 -97.05674 3383 ft 202 kts
2026-05-07 04:11 32.62533 -97.05640 2988 ft 197 kts
2026-05-07 04:11 32.63876 -97.05627 2949 ft 187 kts
2026-05-07 04:11 32.65184 -97.05615 2970 ft 187 kts
2026-05-07 04:11 32.66486 -97.05602 2973 ft 188 kts
2026-05-07 04:12 32.67792 -97.05592 2974 ft 187 kts
2026-05-07 04:12 32.69113 -97.05582 2975 ft 188 kts
2026-05-07 04:12 32.70414 -97.05576 2974 ft 188 kts
2026-05-07 04:12 32.71734 -97.05568 2974 ft 188 kts
2026-05-07 04:13 32.73036 -97.05561 2999 ft 187 kts
2026-05-07 04:13 32.74285 -97.05556 2972 ft 174 kts
2026-05-07 04:13 32.75460 -97.05549 2965 ft 162 kts
2026-05-07 04:13 32.76590 -97.05546 2729 ft 159 kts
2026-05-07 04:14 32.77682 -97.05550 2476 ft 155 kts
2026-05-07 04:14 32.78769 -97.05573 2264 ft 155 kts
2026-05-07 04:14 32.79836 -97.05584 2059 ft 152 kts
2026-05-07 04:14 32.80889 -97.05587 1911 ft 149 kts
2026-05-07 04:15 32.81929 -97.05559 1721 ft 151 kts
2026-05-07 04:15 32.82977 -97.05528 1572 ft 153 kts
2026-05-07 04:15 32.84043 -97.05505 1358 ft 153 kts
2026-05-07 04:15 32.85123 -97.05504 1128 ft 156 kts
2026-05-07 04:16 32.86209 -97.05508 922 ft 152 kts
2026-05-07 04:16 32.87281 -97.05497 758 ft 159 kts
2026-05-07 04:16 32.88371 -97.05484 583 ft 152 kts
2026-05-07 04:16 32.89274 -97.05477 599 ft 102 kts
2026-05-07 04:17 32.89853 -97.05473 613 ft 71 kts
2026-05-07 04:17 32.90320 -97.05472 619 ft 63 kts
2026-05-07 04:17 32.90713 -97.05470 617 ft 40 kts
2026-05-07 04:17 32.90939 -97.05468 614 ft 18 kts 360°
2026-05-07 04:18 32.91011 -97.05519 614 ft 11 kts 288°
2026-05-07 04:18 32.91014 -97.05613 615 ft 11 kts 268°
2026-05-07 04:18 32.91012 -97.05706 617 ft 10 kts 268°
2026-05-07 04:18 32.91037 -97.05773 618 ft 9 kts 332°
2026-05-07 04:19 32.91108 -97.05785 617 ft 11 kts 358°
2026-05-07 04:19 32.91198 -97.05785 617 ft 14 kts
2026-05-07 04:19 32.91272 -97.05785 616 ft 6 kts 352°
2026-05-07 04:19 32.91305 -97.05826 617 ft 8 kts 295°
2026-05-07 04:20 32.91353 -97.05866 617 ft 9 kts 349°
2026-05-07 04:20 32.91428 -97.05870 617 ft 11 kts
2026-05-07 04:20 32.91516 -97.05868 616 ft 13 kts
2026-05-07 04:21 32.91591 -97.05956 617 ft 7 kts 259°
2026-05-07 04:21 32.91570 -97.05994 618 ft 4 kts 224°
2026-05-07 04:21 32.91550 -97.06016 619 ft 2 kts 221°
2026-05-07 04:21 32.91538 -97.06027 619 ft 1 kts 220°
2026-05-07 04:22 32.91535 -97.06030 620 ft 0 kts 220°